User: anonymous   Login
Location: St. Louis
(38.6270°N, 90.1994°W)
Time: 22:56:48
(UTC-06:00)
Language:

AIST 2D - Orbit

View from above orbital plane
View from above orbital plane
View from above satellite
View from above satellite

Ground track
Ground track

The orbit data is extracted from the following two-line orbital elements,

1 41465U 16026B   22024.87566096  .00006086  00000-0  16418-3 0  9995
2 41465  97.0775 266.1944 0008881 301.9376 119.8601 15.38105120321449
Epoch (UTC): 24 January 2022 21:00:57
Eccentricity: 0.0008881
inclination: 97.0775°
perigee height: 445 km
apogee height: 458 km
right ascension of ascending node: 266.1944°
argument of perigee: 301.9376°
revolutions per day: 15.38105120
mean anomaly at epoch: 119.8601°
orbit number at epoch: 32144

The dashed part of the orbit path shows where the satellite is in the earth's shadow,  

DLR